{"data":{"norad_id":56421,"intl_designator":"2023-061AZ","name":"STARLINK-6270","alt_names":[],"object_type":"PAYLOAD","status":"ACTIVE","operator":null,"country":"US","launch_date":"2023-05-04","launch_site_code":"AFETR","launch_vehicle":null,"mission":null,"orbit_class":"UNKNOWN","rcs_meters":null,"size_class":null,"mass_kg":null,"dimensions":null,"purposes":["comms"],"wikipedia_slug":null,"has_3d_model":false,"image_url":null,"decayed_at":null,"tle_current":{"epoch":"2026-05-25T04:00:03.998880Z","epoch_age_seconds":50887,"freshness":"FRESH","line1":"1 56421U 23061AZ  26145.16671295 -.00000245  00000+0  63001-6 0  9992","line2":"2 56421  43.0006 111.2258 0001503 283.0275  89.4806 15.27570647  5845","mean_motion":15.27570647,"eccentricity":0.0001503,"inclination_deg":43.0006,"raan_deg":111.2258,"arg_perigee_deg":283.0275,"mean_anomaly_deg":89.4806,"bstar":6.3001e-7,"rev_number":584,"period_min":94.267325889511,"perigee_km":482.04586194968,"apogee_km":484.10834290887,"semimajor_km":6861.2141024293,"source":"CELESTRAK","updated_at":"2026-05-25T13:38:18.063721Z"}}}